When you browse on this site, cookies collect data to enhance your experience and personalize the content and advertising you see.
Visit our Privacy Policy to learn more. By continuing to use the site, you agree to this use of cookies and data.
  • In Germany
  • List of Countries
  • For 7 days
  • Water Temperature
  • Satellite Maps
  • Weather Map
  • Weather Widgets
  • user-avatar
    Login

    Hourly Weather Bangalore

    Today, 14 December, Friday

    Time Temperature Precipitation Wind Pressure Humidity
    00:00 +20°C° 0 mm 2 mps 685 mmHg 75%
    01:00 +20°C° 0 mm 2 mps 685 mmHg 77%
    02:00 +19°C° 0 mm 2 mps 684 mmHg 78%
    03:00 +19°C° 0 mm 2 mps 684 mmHg 78%
    04:00 +19°C° 0 mm 2 mps 684 mmHg 78%
    05:00 +19°C° 0 mm 1 mps 684 mmHg 77%
    06:00 +20°C° 0 mm 2 mps 685 mmHg 71%
    07:00 +21°C° 0 mm 2 mps 685 mmHg 65%
    08:00 +23°C° 0 mm 2 mps 686 mmHg 60%
    09:00 +25°C° 0 mm 3 mps 686 mmHg 53%
    10:00 +26°C° 0 mm 3 mps 686 mmHg 46%
    11:00 +29°C° 0 mm 3 mps 687 mmHg 40%
    12:00 +29°C° 0 mm 3 mps 686 mmHg 39%
    13:00 +29°C° 0 mm 3 mps 685 mmHg 37%
    14:00 +30°C° 0 mm 3 mps 685 mmHg 36%
    15:00 +29°C° 0 mm 3 mps 685 mmHg 41%
    16:00 +28°C° 0 mm 3 mps 684 mmHg 46%
    17:00 +26°C° 0 mm 3 mps 684 mmHg 51%
    18:00 +25°C° 0 mm 3 mps 685 mmHg 59%
    19:00 +23°C° 0 mm 4 mps 685 mmHg 66%
    20:00 +22°C° 0 mm 4 mps 685 mmHg 73%
    21:00 +21°C° 0 mm 5 mps 685 mmHg 76%
    22:00 +20°C° 0 mm 5 mps 685 mmHg 79%
    23:00 +20°C° 0 mm 5 mps 685 mmHg 82%

    Tomorrow, 15 December, Saturday

    Time Temperature Precipitation Wind Pressure Humidity
    00:00 +19°C° 0 mm 5 mps 685 mmHg 80%
    01:00 +19°C° 0 mm 4 mps 684 mmHg 77%
    02:00 +19°C° 0 mm 4 mps 684 mmHg 75%
    03:00 +19°C° 0 mm 4 mps 684 mmHg 76%
    04:00 +18°C° 0 mm 4 mps 684 mmHg 78%
    05:00 +18°C° 0 mm 4 mps 684 mmHg 80%
    06:00 +19°C° 0 mm 5 mps 684 mmHg 79%
    07:00 +19°C° 0 mm 5 mps 685 mmHg 78%
    08:00 +20°C° 0 mm 6 mps 685 mmHg 76%
    09:00 +21°C° 0 mm 6 mps 685 mmHg 72%
    10:00 +22°C° 0 mm 6 mps 685 mmHg 69%
    11:00 +23°C° 0 mm 6 mps 686 mmHg 65%
    12:00 +23°C° 0 mm 6 mps 685 mmHg 63%
    13:00 +23°C° 0 mm 5 mps 684 mmHg 62%
    14:00 +23°C° 0 mm 5 mps 683 mmHg 61%
    15:00 +23°C° 0 mm 5 mps 683 mmHg 64%
    16:00 +22°C° 0 mm 4 mps 683 mmHg 68%
    17:00 +21°C° 0 mm 3 mps 683 mmHg 71%
    18:00 +21°C° 0 mm 3 mps 684 mmHg 74%
    19:00 +20°C° 0 mm 4 mps 684 mmHg 77%
    20:00 +19°C° 0 mm 4 mps 684 mmHg 81%
    21:00 +19°C° 0 mm 4 mps 684 mmHg 83%
    22:00 +18°C° 0 mm 4 mps 684 mmHg 85%
    23:00 +18°C° 0 mm 3 mps 684 mmHg 86%

    Day after tomorrow, 16 December, Sunday

    Time Temperature Precipitation Wind Pressure Humidity
    00:00 +18°C° 0 mm 3 mps 684 mmHg 86%
    01:00 +17°C° 0 mm 3 mps 684 mmHg 85%
    02:00 +17°C° 0 mm 2 mps 683 mmHg 84%
    03:00 +17°C° 0 mm 2 mps 683 mmHg 84%
    04:00 +17°C° 0 mm 2 mps 683 mmHg 85%
    05:00 +16°C° 0 mm 2 mps 683 mmHg 85%
    06:00 +17°C° 0 mm 3 mps 684 mmHg 80%
    07:00 +18°C° 0 mm 3 mps 684 mmHg 76%
    08:00 +18°C° 0 mm 4 mps 685 mmHg 72%
    09:00 +19°C° 0 mm 4 mps 685 mmHg 67%
    10:00 +20°C° 0 mm 4 mps 685 mmHg 62%
    11:00 +21°C° 0 mm 4 mps 685 mmHg 57%
    12:00 +22°C° 0 mm 4 mps 684 mmHg 56%
    13:00 +22°C° 0 mm 4 mps 684 mmHg 55%
    14:00 +23°C° 0 mm 5 mps 683 mmHg 54%
    15:00 +22°C° 0 mm 4 mps 683 mmHg 57%
    16:00 +21°C° 0 mm 3 mps 683 mmHg 60%
    17:00 +21°C° 0 mm 3 mps 683 mmHg 63%
    18:00 +20°C° 0 mm 3 mps 683 mmHg 65%
    19:00 +19°C° 0 mm 3 mps 684 mmHg 67%
    20:00 +18°C° 0 mm 3 mps 684 mmHg 70%
    21:00 +17°C° 0 mm 2 mps 684 mmHg 72%
    22:00 +17°C° 0 mm 2 mps 684 mmHg 75%
    23:00 +16°C° 0 mm 2 mps 684 mmHg 77%

    17 December, Monday

    Time Temperature Precipitation Wind Pressure Humidity
    00:00 +16°C° 0 mm 2 mps 683 mmHg 80%
    01:00 +15°C° 0 mm 2 mps 683 mmHg 82%
    02:00 +15°C° 0 mm 2 mps 683 mmHg 85%
    03:00 +14°C° 0 mm 2 mps 683 mmHg 87%
    04:00 +14°C° 0 mm 2 mps 682 mmHg 88%
    05:00 +14°C° 0 mm 2 mps 682 mmHg 90%
    06:00 +15°C° 0 mm 2 mps 683 mmHg 84%
    07:00 +17°C° 0 mm 2 mps 684 mmHg 79%
    08:00 +18°C° 0 mm 2 mps 685 mmHg 73%
    09:00 +20°C° 0 mm 2 mps 685 mmHg 62%
    10:00 +23°C° 0 mm 2 mps 685 mmHg 52%
    11:00 +25°C° 0 mm 3 mps 685 mmHg 41%
    12:00 +26°C° 0 mm 3 mps 685 mmHg 38%
    13:00 +27°C° 0 mm 3 mps 684 mmHg 35%
    14:00 +28°C° 0 mm 3 mps 683 mmHg 32%
    15:00 +27°C° 0 mm 3 mps 683 mmHg 36%
    16:00 +26°C° 0 mm 2 mps 683 mmHg 39%
    17:00 +25°C° 0 mm 2 mps 683 mmHg 42%
    18:00 +24°C° 0 mm 2 mps 683 mmHg 44%
    19:00 +23°C° 0 mm 1 mps 684 mmHg 45%
    20:00 +21°C° 0 mm 1 mps 684 mmHg 47%
    21:00 +21°C° 0 mm 1 mps 684 mmHg 48%
    22:00 +20°C° 0 mm 1 mps 684 mmHg 50%
    23:00 +20°C° 0 mm 1 mps 684 mmHg 51%

    18 December, Tuesday

    Time Temperature Precipitation Wind Pressure Humidity
    00:00 +19°C° 0 mm 1 mps 684 mmHg 53%
    01:00 +19°C° 0 mm 1 mps 684 mmHg 56%
    02:00 +18°C° 0 mm 1 mps 683 mmHg 58%
    03:00 +18°C° 0 mm 1 mps 683 mmHg 60%
    04:00 +18°C° 0 mm 1 mps 683 mmHg 63%
    05:00 +16°C° 0 mm 1 mps 683 mmHg 65%
    06:00 +19°C° 0 mm 1 mps 684 mmHg 64%
    07:00 +20°C° 0 mm 1 mps 685 mmHg 62%
    08:00 +20°C° 0 mm 2 mps 686 mmHg 60%
    09:00 +23°C° 0 mm 2 mps 686 mmHg 55%
    10:00 +24°C° 0 mm 2 mps 686 mmHg 49%
    11:00 +26°C° 0 mm 2 mps 686 mmHg 44%
    12:00 +27°C° 0 mm 2 mps 685 mmHg 41%
    13:00 +28°C° 0 mm 2 mps 684 mmHg 38%
    14:00 +29°C° 0 mm 2 mps 684 mmHg 34%
    15:00 +28°C° 0 mm 2 mps 684 mmHg 37%
    16:00 +27°C° 0 mm 2 mps 683 mmHg 40%
    17:00 +26°C° 0 mm 2 mps 683 mmHg 43%
    18:00 +25°C° 0 mm 2 mps 684 mmHg 46%
    19:00 +24°C° 0 mm 2 mps 684 mmHg 49%
    20:00 +21°C° 0 mm 2 mps 685 mmHg 52%
    21:00 +21°C° 0 mm 2 mps 685 mmHg 56%
    22:00 +20°C° 0 mm 2 mps 684 mmHg 60%
    23:00 +19°C° 0 mm 2 mps 684 mmHg 63%

    19 December, Wednesday

    Time Temperature Precipitation Wind Pressure Humidity
    00:00 +19°C° 0 mm 2 mps 684 mmHg 69%
    01:00 +18°C° 0 mm 2 mps 683 mmHg 74%
    02:00 +19°C° 0 mm 1 mps 683 mmHg 80%
    03:00 +18°C° 0 mm 1 mps 683 mmHg 82%
    04:00 +17°C° 0 mm 2 mps 683 mmHg 85%
    05:00 +17°C° 0 mm 2 mps 683 mmHg 87%
    06:00 +18°C° 0 mm 2 mps 684 mmHg 85%
    07:00 +19°C° 0 mm 2 mps 685 mmHg 82%
    08:00 +20°C° 0 mm 2 mps 686 mmHg 80%
    09:00 +21°C° 0 mm 2 mps 686 mmHg 71%
    10:00 +24°C° 0 mm 2 mps 686 mmHg 63%
    11:00 +26°C° 0 mm 2 mps 686 mmHg 54%
    12:00 +27°C° 0 mm 2 mps 685 mmHg 50%
    13:00 +28°C° 0 mm 2 mps 684 mmHg 46%
    14:00 +28°C° 0 mm 2 mps 684 mmHg 42%
    15:00 +28°C° 0 mm 2 mps 684 mmHg 45%
    16:00 +27°C° 0 mm 2 mps 684 mmHg 48%
    17:00 +26°C° 0 mm 2 mps 684 mmHg 51%
    18:00 +25°C° 0 mm 2 mps 684 mmHg 54%
    19:00 +24°C° 0 mm 3 mps 685 mmHg 58%
    20:00 +22°C° 0 mm 3 mps 685 mmHg 62%
    21:00 +21°C° 0 mm 3 mps 685 mmHg 67%
    22:00 +20°C° 0 mm 3 mps 685 mmHg 71%
    23:00 +19°C° 0 mm 2 mps 684 mmHg 76%
    Show more